• In Netherlands
  • List of Countries
  • For 7 days
  • Water Temperature
  • Satellite Maps
  • Weather Map
  • Weather Widgets
  • user-avatar
    Login

    Hourly Weather Jalalabad

    Today, 21 August, Monday

    Time Temperature Precipitation Wind Pressure Humidity
    00:00 +32°C° 0 mm 1 mps 705 mmHg 50%
    01:00 +31°C° 0 mm 1 mps 705 mmHg 52%
    02:00 +31°C° 0 mm 1 mps 705 mmHg 54%
    03:00 +30°C° 0 mm 1 mps 705 mmHg 55%
    04:00 +27°C° 0 mm 0 mps 705 mmHg 57%
    05:00 +27°C° 0 mm 0 mps 705 mmHg 59%
    06:00 +28°C° 0 mm 0 mps 705 mmHg 55%
    07:00 +29°C° 0 mm 0 mps 706 mmHg 51%
    08:00 +31°C° 0 mm 1 mps 706 mmHg 48%
    09:00 +33°C° 0 mm 1 mps 706 mmHg 42%
    10:00 +34°C° 0 mm 1 mps 706 mmHg 37%
    11:00 +36°C° 0 mm 2 mps 706 mmHg 31%
    12:00 +37°C° 0 mm 2 mps 705 mmHg 30%
    13:00 +37°C° 0 mm 2 mps 705 mmHg 28%
    14:00 +38°C° 0 mm 3 mps 704 mmHg 26%
    15:00 +38°C° 0 mm 3 mps 704 mmHg 27%
    16:00 +38°C° 0 mm 3 mps 704 mmHg 27%
    17:00 +39°C° 0 mm 3 mps 703 mmHg 27%
    18:00 +37°C° 0 mm 2 mps 703 mmHg 31%
    19:00 +35°C° 0 mm 1 mps 703 mmHg 35%
    20:00 +34°C° 0 mm 1 mps 704 mmHg 39%
    21:00 +33°C° 0 mm 1 mps 704 mmHg 41%
    22:00 +33°C° 0 mm 1 mps 704 mmHg 43%
    23:00 +30°C° 0 mm 0 mps 704 mmHg 44%

    Tomorrow, 22 August, Tuesday

    Time Temperature Precipitation Wind Pressure Humidity
    00:00 +30°C° 0 mm 0 mps 704 mmHg 46%
    01:00 +29°C° 0 mm 0 mps 704 mmHg 47%
    02:00 +29°C° 0 mm 0 mps 704 mmHg 49%
    03:00 +28°C° 0 mm 0 mps 704 mmHg 50%
    04:00 +28°C° 0 mm 0 mps 704 mmHg 51%
    05:00 +27°C° 0 mm 0 mps 704 mmHg 52%
    06:00 +28°C° 0 mm 0 mps 705 mmHg 49%
    07:00 +31°C° 0 mm 1 mps 705 mmHg 46%
    08:00 +32°C° 0 mm 1 mps 705 mmHg 43%
    09:00 +33°C° 0 mm 1 mps 705 mmHg 40%
    10:00 +34°C° 0 mm 1 mps 705 mmHg 38%
    11:00 +36°C° 0 mm 2 mps 705 mmHg 35%
    12:00 +37°C° 0 mm 2 mps 705 mmHg 33%
    13:00 +38°C° 0 mm 2 mps 705 mmHg 31%
    14:00 +39°C° 0 mm 3 mps 704 mmHg 29%
    15:00 +39°C° 0 mm 3 mps 704 mmHg 29%
    16:00 +39°C° 0 mm 3 mps 704 mmHg 29%
    17:00 +39°C° 0 mm 3 mps 703 mmHg 29%
    18:00 +38°C° 0.1 mm 2 mps 704 mmHg 33%
    19:00 +37°C° 0.1 mm 2 mps 704 mmHg 36%
    20:00 +35°C° 0.1 mm 1 mps 704 mmHg 40%
    21:00 +34°C° 0.2 mm 1 mps 705 mmHg 41%
    22:00 +34°C° 0.2 mm 1 mps 705 mmHg 43%
    23:00 +33°C° 0.2 mm 1 mps 705 mmHg 44%

    Day after tomorrow, 23 August, Wednesday

    Time Temperature Precipitation Wind Pressure Humidity
    00:00 +33°C° 0.2 mm 1 mps 705 mmHg 45%
    01:00 +32°C° 0.2 mm 1 mps 705 mmHg 47%
    02:00 +32°C° 0.2 mm 1 mps 705 mmHg 48%
    03:00 +31°C° 0 mm 1 mps 705 mmHg 49%
    04:00 +31°C° 0 mm 1 mps 705 mmHg 51%
    05:00 +28°C° 0 mm 0 mps 705 mmHg 52%
    06:00 +31°C° 0 mm 1 mps 705 mmHg 50%
    07:00 +32°C° 0 mm 1 mps 706 mmHg 48%
    08:00 +33°C° 0 mm 1 mps 706 mmHg 46%
    09:00 +33°C° 0 mm 1 mps 706 mmHg 44%
    10:00 +35°C° 0 mm 2 mps 706 mmHg 42%
    11:00 +36°C° 0 mm 2 mps 706 mmHg 40%
    12:00 +37°C° 0.1 mm 2 mps 706 mmHg 38%
    13:00 +38°C° 0.1 mm 2 mps 705 mmHg 36%
    14:00 +39°C° 0.1 mm 3 mps 705 mmHg 34%
    15:00 +39°C° 0.2 mm 3 mps 704 mmHg 33%
    16:00 +39°C° 0.2 mm 3 mps 704 mmHg 33%
    17:00 +39°C° 0.2 mm 3 mps 704 mmHg 33%
    18:00 +38°C° 0.2 mm 2 mps 704 mmHg 37%
    19:00 +37°C° 0.2 mm 2 mps 705 mmHg 41%
    20:00 +35°C° 0.2 mm 1 mps 705 mmHg 45%
    21:00 +35°C° 0.2 mm 1 mps 705 mmHg 46%
    22:00 +34°C° 0.2 mm 1 mps 705 mmHg 48%
    23:00 +34°C° 0.2 mm 1 mps 706 mmHg 49%

    24 August, Thursday

    Time Temperature Precipitation Wind Pressure Humidity
    00:00 +33°C° 0.2 mm 1 mps 705 mmHg 51%
    01:00 +32°C° 0.2 mm 1 mps 705 mmHg 52%
    02:00 +32°C° 0.2 mm 1 mps 705 mmHg 53%
    03:00 +31°C° 0.1 mm 1 mps 705 mmHg 54%
    04:00 +29°C° 0.1 mm 0 mps 705 mmHg 56%
    05:00 +28°C° 0.1 mm 0 mps 705 mmHg 57%
    06:00 +29°C° 0 mm 0 mps 705 mmHg 56%
    07:00 +32°C° 0 mm 1 mps 706 mmHg 54%
    08:00 +32°C° 0 mm 1 mps 706 mmHg 52%
    09:00 +33°C° 0.1 mm 1 mps 706 mmHg 49%
    10:00 +34°C° 0.1 mm 1 mps 706 mmHg 46%
    11:00 +36°C° 0.1 mm 2 mps 706 mmHg 44%
    12:00 +37°C° 0.1 mm 2 mps 705 mmHg 41%
    13:00 +38°C° 0.1 mm 2 mps 705 mmHg 38%
    14:00 +39°C° 0.1 mm 3 mps 704 mmHg 35%
    15:00 +39°C° 0.2 mm 3 mps 704 mmHg 35%
    16:00 +39°C° 0.2 mm 3 mps 704 mmHg 35%
    17:00 +39°C° 0.2 mm 3 mps 704 mmHg 35%
    18:00 +38°C° 0.7 mm 3 mps 704 mmHg 40%
    19:00 +37°C° 0.7 mm 2 mps 705 mmHg 44%
    20:00 +36°C° 0.7 mm 2 mps 705 mmHg 49%
    21:00 +34°C° 0.9 mm 1 mps 705 mmHg 51%
    22:00 +34°C° 0.9 mm 1 mps 705 mmHg 53%
    23:00 +33°C° 0.9 mm 1 mps 705 mmHg 55%

    25 August, Friday

    Time Temperature Precipitation Wind Pressure Humidity
    00:00 +32°C° 1 mm 1 mps 705 mmHg 56%
    01:00 +32°C° 1 mm 1 mps 705 mmHg 58%
    02:00 +31°C° 1 mm 1 mps 704 mmHg 59%
    03:00 +31°C° 1 mm 1 mps 704 mmHg 59%
    04:00 +30°C° 1 mm 1 mps 704 mmHg 60%
    05:00 +30°C° 1 mm 1 mps 704 mmHg 60%
    06:00 +30°C° 0.4 mm 1 mps 705 mmHg 57%
    07:00 +31°C° 0.4 mm 1 mps 705 mmHg 53%
    08:00 +32°C° 0.4 mm 1 mps 705 mmHg 50%
    09:00 +33°C° 0 mm 1 mps 705 mmHg 43%
    10:00 +34°C° 0 mm 1 mps 705 mmHg 36%
    11:00 +36°C° 0 mm 2 mps 705 mmHg 29%
    12:00 +37°C° 0 mm 2 mps 705 mmHg 27%
    13:00 +38°C° 0 mm 2 mps 704 mmHg 24%
    14:00 +39°C° 0 mm 2 mps 704 mmHg 21%
    15:00 +39°C° 0.1 mm 2 mps 703 mmHg 21%
    16:00 +39°C° 0.1 mm 2 mps 703 mmHg 20%
    17:00 +39°C° 0.1 mm 2 mps 703 mmHg 20%
    18:00 +37°C° 0.1 mm 2 mps 703 mmHg 25%
    19:00 +36°C° 0.1 mm 2 mps 703 mmHg 29%
    20:00 +33°C° 0.1 mm 1 mps 704 mmHg 34%
    21:00 +34°C° 0.1 mm 2 mps 704 mmHg 33%
    22:00 +32°C° 0.1 mm 2 mps 704 mmHg 33%
    23:00 +32°C° 0.1 mm 2 mps 704 mmHg 33%

    26 August, Saturday

    Time Temperature Precipitation Wind Pressure Humidity
    00:00 +31°C° 0 mm 2 mps 703 mmHg 32%
    01:00 +30°C° 0 mm 2 mps 703 mmHg 31%
    02:00 +29°C° 0 mm 2 mps 703 mmHg 30%
    03:00 +29°C° 0 mm 2 mps 703 mmHg 29%
    04:00 +28°C° 0 mm 2 mps 703 mmHg 27%
    05:00 +28°C° 0 mm 2 mps 703 mmHg 25%
    06:00 +29°C° 0 mm 2 mps 704 mmHg 21%
    07:00 +30°C° 0 mm 2 mps 704 mmHg 17%
    08:00 +32°C° 0 mm 2 mps 704 mmHg 13%
    09:00 +34°C° 0 mm 2 mps 704 mmHg 12%
    10:00 +35°C° 0 mm 3 mps 704 mmHg 12%
    11:00 +36°C° 0 mm 3 mps 704 mmHg 11%
    12:00 +37°C° 0 mm 3 mps 704 mmHg 11%
    13:00 +38°C° 0 mm 2 mps 703 mmHg 11%
    14:00 +38°C° 0 mm 2 mps 703 mmHg 10%
    15:00 +38°C° 0 mm 2 mps 703 mmHg 11%
    16:00 +38°C° 0 mm 2 mps 703 mmHg 11%
    17:00 +38°C° 0 mm 2 mps 703 mmHg 12%
    18:00 +37°C° 0 mm 2 mps 703 mmHg 15%
    19:00 +34°C° 0 mm 1 mps 703 mmHg 19%
    20:00 +32°C° 0 mm 1 mps 703 mmHg 23%
    21:00 +32°C° 0 mm 1 mps 703 mmHg 22%
    22:00 +31°C° 0 mm 2 mps 703 mmHg 21%
    23:00 +31°C° 0 mm 2 mps 703 mmHg 20%
    Show more